SUR4606 SABE-SAVT

Flight info

Callsign SUR4606
Flight time 1h 41m
Altitude 36000
Route PAL9 GBE UT694 IREMO UP664 VIE DCT KIGIR KIGI3Q
Aircraft B738/M-SDE3FGHIRWY/LB1

Departure

Time 2026-05-08 17:55
Airport Aeroparque Jorge Newbery (SABE)

Arrival

Time 2026-05-08 19:37
Airport Almirante Marco Andres Zar Airport (SAVT)
Time Latitude Longitude Altitude Speed Heading
2026-05-08 17:09 -34.55780 -58.41289 24 ft 0 kts 36°
2026-05-08 17:25 -34.55781 -58.41289 24 ft 0 kts 36°
2026-05-08 17:29 -34.55781 -58.41290 24 ft 0 kts 36°
2026-05-08 17:41 -34.55793 -58.41301 30 ft 2 kts 36°
2026-05-08 17:41 -34.55807 -58.41312 26 ft 2 kts 14°
2026-05-08 17:41 -34.55815 -58.41312 26 ft 0 kts 298°
2026-05-08 17:48 -34.55813 -58.41317 26 ft 2 kts 296°
2026-05-08 17:49 -34.55794 -58.41363 24 ft 10 kts 298°
2026-05-08 17:49 -34.55759 -58.41436 24 ft 9 kts 300°
2026-05-08 17:49 -34.55733 -58.41495 27 ft 8 kts 292°
2026-05-08 17:49 -34.55741 -58.41554 27 ft 7 kts 230°
2026-05-08 17:50 -34.55786 -58.41579 24 ft 7 kts 172°
2026-05-08 17:50 -34.55826 -58.41531 26 ft 10 kts 121°
2026-05-08 17:50 -34.55862 -58.41445 24 ft 12 kts 117°
2026-05-08 17:50 -34.55903 -58.41348 25 ft 14 kts 117°
2026-05-08 17:51 -34.55955 -58.41247 25 ft 14 kts 126°
2026-05-08 17:51 -34.56017 -58.41146 26 ft 15 kts 128°
2026-05-08 17:51 -34.56082 -58.41044 24 ft 15 kts 127°
2026-05-08 17:51 -34.56142 -58.40942 26 ft 15 kts 122°
2026-05-08 17:52 -34.56200 -58.40831 26 ft 16 kts 131°
2026-05-08 17:52 -34.56256 -58.40767 24 ft 0 kts 138°
2026-05-08 17:53 -34.56280 -58.40741 25 ft 9 kts 137°
2026-05-08 17:53 -34.56350 -58.40670 26 ft 15 kts 155°
2026-05-08 17:53 -34.56395 -58.40731 28 ft 0 kts 296°
2026-05-08 17:54 -34.56383 -58.40755 25 ft 20 kts 301°
2026-05-08 17:54 -34.56129 -58.41218 28 ft 109 kts 304°
2026-05-08 17:55 -34.55568 -58.42211 208 ft 165 kts 302°
2026-05-08 17:55 -34.54892 -58.43335 1290 ft 168 kts 304°
2026-05-08 17:55 -34.53925 -58.44380 1915 ft 205 kts 323°
2026-05-08 17:55 -34.52487 -58.44917 2641 ft 232 kts 348°
2026-05-08 17:56 -34.50836 -58.44704 3382 ft 250 kts 10°
2026-05-08 17:56 -34.49267 -58.43626 3897 ft 273 kts 42°
2026-05-08 17:56 -34.47926 -58.41880 4437 ft 289 kts 41°
2026-05-08 17:56 -34.46345 -58.40332 5212 ft 293 kts 32°
2026-05-08 17:57 -34.44552 -58.39267 6146 ft 284 kts
2026-05-08 17:57 -34.42648 -58.39388 7020 ft 271 kts 336°
2026-05-08 17:57 -34.41012 -58.40444 7829 ft 265 kts 314°
2026-05-08 17:57 -34.39852 -58.42129 8651 ft 260 kts 294°
2026-05-08 17:58 -34.39303 -58.44194 9480 ft 259 kts 274°
2026-05-08 17:58 -34.39440 -58.46374 10089 ft 268 kts 254°
2026-05-08 17:58 -34.39939 -58.47792 10200 ft 286 kts 239°
2026-05-08 17:58 -34.41340 -58.49636 10412 ft 313 kts 219°
2026-05-08 17:59 -34.43285 -58.51049 10710 ft 335 kts 210°
2026-05-08 17:59 -34.46134 -58.52667 11572 ft 344 kts 208°
2026-05-08 17:59 -34.47587 -58.53468 11998 ft 348 kts 208°
2026-05-08 17:59 -34.49816 -58.54717 12564 ft 358 kts 207°
2026-05-08 18:00 -34.52092 -58.56017 13174 ft 364 kts 209°
2026-05-08 18:00 -34.56727 -58.58744 14493 ft 371 kts 208°
2026-05-08 18:00 -34.59048 -58.60119 15337 ft 369 kts 209°
2026-05-08 18:01 -34.61354 -58.61488 16091 ft 370 kts 208°
2026-05-08 18:01 -34.63675 -58.62853 16822 ft 370 kts 209°
2026-05-08 18:01 -34.65999 -58.64205 17554 ft 372 kts 208°
2026-05-08 18:01 -34.68360 -58.65579 18036 ft 379 kts 207°
2026-05-08 18:02 -34.70750 -58.66966 18658 ft 380 kts 208°
2026-05-08 18:02 -34.73120 -58.68343 19084 ft 387 kts 207°
2026-05-08 18:02 -34.75564 -58.69766 19558 ft 391 kts 208°
2026-05-08 18:02 -34.78013 -58.71195 20216 ft 390 kts 208°
2026-05-08 18:03 -34.80471 -58.72630 20728 ft 393 kts 208°
2026-05-08 18:03 -34.82931 -58.74067 21383 ft 393 kts 207°
2026-05-08 18:03 -34.85399 -58.75510 21945 ft 394 kts 207°
2026-05-08 18:03 -34.87889 -58.76966 22408 ft 397 kts 208°
2026-05-08 18:04 -34.90383 -58.78427 22903 ft 401 kts 207°
2026-05-08 18:04 -34.92939 -58.79927 23069 ft 412 kts 207°
2026-05-08 18:04 -34.95520 -58.81442 23538 ft 413 kts 207°
2026-05-08 18:04 -34.98115 -58.82965 24019 ft 412 kts 208°
2026-05-08 18:05 -35.00668 -58.84465 24509 ft 412 kts 207°
2026-05-08 18:05 -35.03265 -58.85992 24838 ft 416 kts 207°
2026-05-08 18:05 -35.05880 -58.87530 25251 ft 417 kts 207°
2026-05-08 18:05 -35.08507 -58.89076 25611 ft 419 kts 207°
2026-05-08 18:06 -35.11140 -58.90626 25953 ft 422 kts 207°
2026-05-08 18:06 -35.13784 -58.92184 26406 ft 422 kts 207°
2026-05-08 18:06 -35.16436 -58.93747 26714 ft 425 kts 207°
2026-05-08 18:06 -35.19108 -58.95325 27020 ft 428 kts 207°
2026-05-08 18:07 -35.21799 -58.96916 27326 ft 430 kts 207°
2026-05-08 18:07 -35.24500 -58.98513 27665 ft 432 kts 207°
2026-05-08 18:07 -35.27234 -59.00131 27842 ft 438 kts 207°
2026-05-08 18:07 -35.29977 -59.01755 28224 ft 438 kts 207°
2026-05-08 18:08 -35.32731 -59.03387 28511 ft 440 kts 207°
2026-05-08 18:08 -35.35492 -59.05024 28896 ft 441 kts 207°
2026-05-08 18:08 -35.38217 -59.06641 29214 ft 442 kts 207°
2026-05-08 18:08 -35.40978 -59.08280 29701 ft 439 kts 207°
2026-05-08 18:09 -35.43737 -59.09920 29954 ft 442 kts 207°
2026-05-08 18:09 -35.46499 -59.11562 30353 ft 439 kts 208°
2026-05-08 18:09 -35.49241 -59.13194 30687 ft 438 kts 208°
2026-05-08 18:09 -35.51986 -59.14829 31038 ft 437 kts 208°
2026-05-08 18:10 -35.54732 -59.16466 31244 ft 440 kts 208°
2026-05-08 18:10 -35.57482 -59.18108 31637 ft 438 kts 208°
2026-05-08 18:10 -35.60226 -59.19746 31897 ft 439 kts 208°
2026-05-08 18:10 -35.62978 -59.21391 32177 ft 439 kts 208°
2026-05-08 18:11 -35.65691 -59.23013 32484 ft 439 kts 208°
2026-05-08 18:11 -35.68444 -59.24660 32776 ft 439 kts 209°
2026-05-08 18:11 -35.71184 -59.26302 33056 ft 439 kts 208°
2026-05-08 18:11 -35.73943 -59.27956 33295 ft 440 kts 208°
2026-05-08 18:12 -35.76697 -59.29608 33543 ft 441 kts 209°
2026-05-08 18:12 -35.79451 -59.31261 33828 ft 440 kts 209°
2026-05-08 18:12 -35.82201 -59.32913 34087 ft 439 kts 209°
2026-05-08 18:12 -35.84943 -59.34562 34300 ft 439 kts 209°
2026-05-08 18:13 -35.87695 -59.36218 34526 ft 439 kts 209°
2026-05-08 18:13 -35.90445 -59.37874 34721 ft 440 kts 209°
2026-05-08 18:13 -35.93201 -59.39535 34914 ft 441 kts 208°
2026-05-08 18:13 -35.95923 -59.41177 35091 ft 441 kts 209°
2026-05-08 18:14 -35.98674 -59.42837 35369 ft 440 kts 208°
2026-05-08 18:14 -36.01427 -59.44499 35552 ft 440 kts 209°
2026-05-08 18:14 -36.04178 -59.46162 35682 ft 442 kts 209°
2026-05-08 18:14 -36.06948 -59.47840 35678 ft 445 kts 209°
2026-05-08 18:15 -36.12514 -59.51212 35693 ft 444 kts 209°
2026-05-08 18:15 -36.18042 -59.54563 35678 ft 440 kts 209°
2026-05-08 18:16 -36.23517 -59.57889 35676 ft 437 kts 209°
2026-05-08 18:16 -36.28962 -59.61203 35687 ft 435 kts 209°
2026-05-08 18:17 -36.34348 -59.64486 35684 ft 434 kts 209°
2026-05-08 18:17 -36.39764 -59.67794 35689 ft 434 kts 208°
2026-05-08 18:18 -36.45194 -59.71115 35682 ft 435 kts 208°
2026-05-08 18:18 -36.50632 -59.74445 35686 ft 437 kts 209°
2026-05-08 18:19 -36.56099 -59.77799 35684 ft 439 kts 208°
2026-05-08 18:19 -36.61601 -59.81179 35678 ft 441 kts 209°
2026-05-08 18:20 -36.67118 -59.84574 35687 ft 442 kts 208°
2026-05-08 18:20 -36.72612 -59.87960 35681 ft 443 kts 208°
2026-05-08 18:21 -36.78140 -59.91372 35673 ft 443 kts 208°
2026-05-08 18:21 -36.83663 -59.94787 35686 ft 443 kts 208°
2026-05-08 18:22 -36.89180 -59.98203 35688 ft 441 kts 209°
2026-05-08 18:22 -36.94678 -60.01614 35674 ft 440 kts 209°
2026-05-08 18:23 -37.00125 -60.04998 35683 ft 439 kts 209°
2026-05-08 18:23 -37.05590 -60.08399 35685 ft 437 kts 209°
2026-05-08 18:24 -37.11036 -60.11794 35677 ft 436 kts 209°
2026-05-08 18:24 -37.16471 -60.15188 35680 ft 436 kts 209°
2026-05-08 18:25 -37.21869 -60.18563 35684 ft 435 kts 209°
2026-05-08 18:25 -37.27292 -60.21961 35679 ft 435 kts 208°
2026-05-08 18:26 -37.32719 -60.25365 35675 ft 436 kts 208°
2026-05-08 18:26 -37.38154 -60.28780 35679 ft 437 kts 209°
2026-05-08 18:27 -37.42677 -60.31627 35691 ft 437 kts 209°
2026-05-08 18:27 -37.49023 -60.35629 35674 ft 438 kts 208°
2026-05-08 18:28 -37.54480 -60.39075 35680 ft 439 kts 208°
2026-05-08 18:28 -37.59908 -60.42508 35676 ft 439 kts 209°
2026-05-08 18:29 -37.65363 -60.45963 35696 ft 438 kts 208°
2026-05-08 18:29 -37.70820 -60.49426 35684 ft 438 kts 209°
2026-05-08 18:30 -37.76262 -60.52886 35688 ft 435 kts 209°
2026-05-08 18:30 -37.81665 -60.56326 35679 ft 433 kts 208°
2026-05-08 18:31 -37.87028 -60.59747 35687 ft 436 kts 208°
2026-05-08 18:31 -37.92475 -60.63227 35687 ft 440 kts 208°
2026-05-08 18:32 -37.97929 -60.66717 35668 ft 438 kts 208°
2026-05-08 18:32 -38.03345 -60.70188 35665 ft 435 kts 208°
2026-05-08 18:33 -38.08735 -60.73649 35669 ft 434 kts 208°
2026-05-08 18:33 -38.14090 -60.77094 35673 ft 434 kts 208°
2026-05-08 18:34 -38.19488 -60.80570 35677 ft 435 kts 208°
2026-05-08 18:34 -38.24911 -60.84069 35692 ft 438 kts 209°
2026-05-08 18:35 -38.30329 -60.87571 35682 ft 434 kts 208°
2026-05-08 18:35 -38.35659 -60.91019 35674 ft 430 kts 208°
2026-05-08 18:36 -38.41013 -60.94492 35690 ft 433 kts 208°
2026-05-08 18:36 -38.46397 -60.97991 35679 ft 434 kts 208°
2026-05-08 18:37 -38.51759 -61.01479 35659 ft 431 kts 208°
2026-05-08 18:37 -38.57111 -61.04967 35660 ft 432 kts 208°
2026-05-08 18:38 -38.62499 -61.08485 35686 ft 435 kts 208°
2026-05-08 18:38 -38.67870 -61.11999 35676 ft 436 kts 208°
2026-05-08 18:39 -38.73244 -61.15520 35689 ft 432 kts 208°
2026-05-08 18:39 -38.78618 -61.19046 35691 ft 434 kts 208°
2026-05-08 18:40 -38.83999 -61.22582 35695 ft 433 kts 208°
2026-05-08 18:40 -38.89353 -61.26107 35677 ft 431 kts 208°
2026-05-08 18:41 -38.94661 -61.29606 35682 ft 431 kts 208°
2026-05-08 18:41 -39.00007 -61.33140 35668 ft 431 kts 208°
2026-05-08 18:42 -39.05335 -61.36667 35677 ft 428 kts 208°
2026-05-08 18:42 -39.10630 -61.40179 35676 ft 428 kts 208°
2026-05-08 18:43 -39.15945 -61.43709 35692 ft 434 kts 207°
2026-05-08 18:43 -39.21316 -61.47281 35698 ft 432 kts 208°
2026-05-08 18:44 -39.26638 -61.50828 35658 ft 429 kts 207°
2026-05-08 18:44 -39.31925 -61.54358 35681 ft 432 kts 207°
2026-05-08 18:45 -39.37299 -61.57951 35677 ft 435 kts 207°
2026-05-08 18:45 -39.42630 -61.61522 35666 ft 427 kts 207°
2026-05-08 18:46 -39.47903 -61.65059 35691 ft 427 kts 207°
2026-05-08 18:46 -39.53184 -61.68610 35662 ft 434 kts 207°
2026-05-08 18:47 -39.58546 -61.72221 35698 ft 433 kts 207°
2026-05-08 18:47 -39.63863 -61.75807 35658 ft 428 kts 207°
2026-05-08 18:48 -39.69136 -61.79371 35665 ft 432 kts 207°
2026-05-08 18:48 -39.74493 -61.82998 35694 ft 435 kts 207°
2026-05-08 18:49 -39.78957 -61.86025 35684 ft 434 kts 208°
2026-05-08 18:49 -39.84283 -61.89640 35684 ft 430 kts 208°
2026-05-08 18:50 -39.89315 -61.93829 35678 ft 433 kts 219°
2026-05-08 18:50 -39.93963 -61.98866 35702 ft 435 kts 219°
2026-05-08 18:51 -39.98605 -62.03893 35691 ft 433 kts 218°
2026-05-08 18:51 -40.03233 -62.08880 35691 ft 435 kts 219°
2026-05-08 18:52 -40.07906 -62.13908 35701 ft 432 kts 218°
2026-05-08 18:52 -40.12534 -62.18891 35689 ft 430 kts 219°
2026-05-08 18:53 -40.17192 -62.23916 35696 ft 436 kts 218°
2026-05-08 18:53 -40.21855 -62.28957 35704 ft 436 kts 218°
2026-05-08 18:54 -40.26536 -62.34028 35679 ft 437 kts 219°
2026-05-08 18:54 -40.31221 -62.39111 35691 ft 438 kts 218°
2026-05-08 18:55 -40.38200 -62.46705 35696 ft 433 kts 219°
2026-05-08 18:56 -40.42821 -62.51745 35721 ft 437 kts 218°
2026-05-08 18:56 -40.47514 -62.56867 35705 ft 437 kts 218°
2026-05-08 18:57 -40.52174 -62.61968 35703 ft 437 kts 219°
2026-05-08 18:57 -40.56853 -62.67099 35718 ft 438 kts 218°
2026-05-08 18:58 -40.61522 -62.72231 35711 ft 437 kts 218°
2026-05-08 18:58 -40.66193 -62.77369 35729 ft 439 kts 219°
2026-05-08 18:59 -40.70885 -62.82544 35751 ft 439 kts 218°
2026-05-08 18:59 -40.75560 -62.87707 35740 ft 437 kts 218°
2026-05-08 19:00 -40.80217 -62.92865 35746 ft 437 kts 217°
2026-05-08 19:00 -40.84851 -62.98003 35757 ft 436 kts 218°
2026-05-08 19:01 -40.89634 -63.02901 35757 ft 435 kts 214°
2026-05-08 19:01 -40.94670 -63.07469 35759 ft 440 kts 213°
2026-05-08 19:02 -40.99735 -63.12061 35751 ft 441 kts 212°
2026-05-08 19:02 -41.04740 -63.16658 35765 ft 436 kts 212°
2026-05-08 19:03 -41.09713 -63.21254 35782 ft 441 kts 211°
2026-05-08 19:03 -41.14753 -63.25922 35802 ft 440 kts 212°
2026-05-08 19:04 -41.19777 -63.30589 35793 ft 439 kts 214°
2026-05-08 19:04 -41.24788 -63.35246 35793 ft 440 kts 212°
2026-05-08 19:05 -41.29800 -63.39912 35824 ft 439 kts 212°
2026-05-08 19:05 -41.34780 -63.44566 35810 ft 437 kts 212°
2026-05-08 19:06 -41.39741 -63.49214 35823 ft 442 kts 213°
2026-05-08 19:06 -41.44774 -63.53946 35834 ft 443 kts 212°
2026-05-08 19:07 -41.49777 -63.58651 35834 ft 438 kts 213°
2026-05-08 19:07 -41.54763 -63.63356 35856 ft 440 kts 212°
2026-05-08 19:08 -41.59791 -63.68106 35652 ft 447 kts 213°
2026-05-08 19:08 -41.62318 -63.70491 35146 ft 451 kts 212°
2026-05-08 19:08 -41.64884 -63.72917 34501 ft 451 kts 212°
2026-05-08 19:08 -41.67445 -63.75347 33888 ft 452 kts 213°
2026-05-08 19:09 -41.70011 -63.77781 33121 ft 454 kts 213°
2026-05-08 19:09 -41.72589 -63.80232 32523 ft 451 kts 212°
2026-05-08 19:09 -41.75133 -63.82652 32055 ft 446 kts 211°
2026-05-08 19:09 -41.77643 -63.85049 31593 ft 441 kts 213°
2026-05-08 19:10 -41.80134 -63.87415 31128 ft 437 kts 210°
2026-05-08 19:10 -41.82597 -63.89763 30675 ft 432 kts 212°
2026-05-08 19:10 -41.85038 -63.92091 30229 ft 429 kts 212°
2026-05-08 19:10 -41.87459 -63.94411 29741 ft 425 kts 210°
2026-05-08 19:11 -41.89828 -63.96655 29237 ft 420 kts 210°
2026-05-08 19:11 -41.92188 -63.98936 28780 ft 415 kts 209°
2026-05-08 19:11 -41.94519 -64.01173 28327 ft 409 kts 210°
2026-05-08 19:11 -41.96821 -64.03396 27885 ft 404 kts 210°
2026-05-08 19:12 -41.99093 -64.05573 27416 ft 399 kts 211°
2026-05-08 19:12 -42.01348 -64.07731 26977 ft 396 kts 209°
2026-05-08 19:12 -42.03579 -64.09877 26564 ft 391 kts 208°
2026-05-08 19:12 -42.05783 -64.11988 26115 ft 387 kts 210°
2026-05-08 19:13 -42.07938 -64.14066 25709 ft 383 kts 210°
2026-05-08 19:13 -42.10099 -64.16146 25284 ft 380 kts 210°
2026-05-08 19:13 -42.12243 -64.18206 24855 ft 376 kts 209°
2026-05-08 19:13 -42.14354 -64.20267 24452 ft 373 kts 211°
2026-05-08 19:14 -42.16457 -64.22298 24035 ft 370 kts 211°
2026-05-08 19:14 -42.18548 -64.24311 23604 ft 368 kts 211°
2026-05-08 19:14 -42.20622 -64.26316 23153 ft 365 kts 211°
2026-05-08 19:14 -42.22678 -64.28303 22729 ft 361 kts 210°
2026-05-08 19:15 -42.24702 -64.30262 22335 ft 356 kts 210°
2026-05-08 19:15 -42.26706 -64.32205 21942 ft 352 kts 210°
2026-05-08 19:15 -42.28661 -64.34104 21538 ft 349 kts 211°
2026-05-08 19:15 -42.30625 -64.36012 21147 ft 346 kts 210°
2026-05-08 19:16 -42.32569 -64.37903 20751 ft 343 kts 210°
2026-05-08 19:16 -42.34505 -64.39788 20364 ft 340 kts 210°
2026-05-08 19:16 -42.36417 -64.41649 19983 ft 337 kts 210°
2026-05-08 19:16 -42.38317 -64.43501 19597 ft 334 kts 210°
2026-05-08 19:17 -42.40195 -64.45331 19225 ft 332 kts 210°
2026-05-08 19:17 -42.42062 -64.47153 18866 ft 330 kts 210°
2026-05-08 19:17 -42.43917 -64.48966 18498 ft 327 kts 210°
2026-05-08 19:17 -42.45733 -64.50739 18114 ft 325 kts 208°
2026-05-08 19:18 -42.47642 -64.52303 17812 ft 317 kts 201°
2026-05-08 19:18 -42.49614 -64.53581 17545 ft 313 kts 198°
2026-05-08 19:18 -42.51593 -64.54789 17236 ft 311 kts 198°
2026-05-08 19:18 -42.53558 -64.55994 16881 ft 308 kts 199°
2026-05-08 19:19 -42.55502 -64.57203 16515 ft 305 kts 199°
2026-05-08 19:19 -42.57425 -64.58416 16144 ft 303 kts 199°
2026-05-08 19:19 -42.59324 -64.59626 15805 ft 300 kts 199°
2026-05-08 19:19 -42.61209 -64.60833 15439 ft 298 kts 199°
2026-05-08 19:20 -42.63073 -64.62032 15088 ft 296 kts 199°
2026-05-08 19:20 -42.63677 -64.62420 14974 ft 295 kts 199°
2026-05-08 19:20 -42.66769 -64.64414 14401 ft 292 kts 199°
2026-05-08 19:20 -42.68574 -64.65579 14067 ft 291 kts 199°
2026-05-08 19:21 -42.70400 -64.66759 13707 ft 290 kts 199°
2026-05-08 19:21 -42.72221 -64.67936 13327 ft 289 kts 199°
2026-05-08 19:21 -42.74022 -64.69103 12983 ft 286 kts 199°
2026-05-08 19:21 -42.75807 -64.70260 12699 ft 281 kts 199°
2026-05-08 19:22 -42.77564 -64.71400 12366 ft 278 kts 199°
2026-05-08 19:22 -42.79305 -64.72529 12052 ft 276 kts 199°
2026-05-08 19:22 -42.81030 -64.73648 11701 ft 274 kts 199°
2026-05-08 19:22 -42.82743 -64.74760 11371 ft 272 kts 199°
2026-05-08 19:23 -42.84444 -64.75865 11036 ft 270 kts 199°
2026-05-08 19:23 -42.86113 -64.76950 10733 ft 268 kts 199°
2026-05-08 19:23 -42.87780 -64.78035 10561 ft 261 kts 199°
2026-05-08 19:23 -42.89402 -64.79093 10462 ft 257 kts 199°
2026-05-08 19:24 -42.91005 -64.80136 10347 ft 254 kts 199°
2026-05-08 19:24 -42.92598 -64.81174 10257 ft 252 kts 199°
2026-05-08 19:24 -42.94158 -64.82192 10139 ft 244 kts 199°
2026-05-08 19:24 -42.95653 -64.83170 10028 ft 236 kts 199°
2026-05-08 19:25 -42.97133 -64.84136 9792 ft 234 kts 199°
2026-05-08 19:25 -42.98596 -64.85090 9546 ft 232 kts 199°
2026-05-08 19:25 -43.00045 -64.86036 9301 ft 230 kts 199°
2026-05-08 19:25 -43.01487 -64.86978 9069 ft 227 kts 199°
2026-05-08 19:26 -43.02903 -64.87904 8814 ft 225 kts 199°
2026-05-08 19:26 -43.04304 -64.88820 8561 ft 220 kts 199°
2026-05-08 19:26 -43.05654 -64.89706 8331 ft 212 kts 199°
2026-05-08 19:26 -43.06948 -64.90555 8095 ft 205 kts 199°
2026-05-08 19:27 -43.08231 -64.91395 7919 ft 206 kts 199°
2026-05-08 19:27 -43.09539 -64.92248 7702 ft 212 kts 199°
2026-05-08 19:27 -43.10895 -64.93188 7398 ft 227 kts 207°
2026-05-08 19:27 -43.11992 -64.94869 6862 ft 246 kts 229°
2026-05-08 19:28 -43.12570 -64.97156 6294 ft 271 kts 258°
2026-05-08 19:28 -43.12171 -64.99766 5764 ft 294 kts 288°
2026-05-08 19:28 -43.10868 -65.02007 5213 ft 312 kts 319°
2026-05-08 19:28 -43.08845 -65.03127 4702 ft 321 kts 357°
2026-05-08 19:29 -43.06754 -65.02603 4708 ft 295 kts 34°
2026-05-08 19:29 -43.05360 -65.00851 4669 ft 256 kts 74°
2026-05-08 19:29 -43.05067 -64.98681 4663 ft 218 kts 114°
2026-05-08 19:29 -43.05814 -64.97117 4655 ft 189 kts 155°
2026-05-08 19:30 -43.07062 -64.96900 4672 ft 185 kts 186°
2026-05-08 19:30 -43.08299 -64.96874 4672 ft 172 kts 166°
2026-05-08 19:30 -43.09465 -64.96645 4273 ft 174 kts 178°
2026-05-08 19:30 -43.10670 -64.96835 3787 ft 180 kts 189°
2026-05-08 19:31 -43.11838 -64.97540 3286 ft 189 kts 204°
2026-05-08 19:31 -43.12821 -64.98800 2768 ft 205 kts 228°
2026-05-08 19:31 -43.13419 -65.00525 2708 ft 191 kts 234°
2026-05-08 19:31 -43.13964 -65.02116 2536 ft 178 kts 233°
2026-05-08 19:32 -43.14431 -65.03628 2396 ft 168 kts 234°
2026-05-08 19:32 -43.14835 -65.05057 2349 ft 158 kts 234°
2026-05-08 19:32 -43.15227 -65.06450 2363 ft 159 kts 235°
2026-05-08 19:32 -43.15596 -65.07868 2419 ft 158 kts 236°
2026-05-08 19:33 -43.15948 -65.09301 2417 ft 159 kts 236°
2026-05-08 19:33 -43.16323 -65.10708 2380 ft 154 kts 234°
2026-05-08 19:33 -43.16703 -65.12029 2322 ft 146 kts 232°
2026-05-08 19:33 -43.17106 -65.13315 2064 ft 147 kts 231°
2026-05-08 19:34 -43.17503 -65.14593 1858 ft 143 kts 232°
2026-05-08 19:34 -43.17881 -65.15841 1676 ft 140 kts 231°
2026-05-08 19:34 -43.18268 -65.17079 1483 ft 143 kts 231°
2026-05-08 19:34 -43.18639 -65.18332 1290 ft 138 kts 234°
2026-05-08 19:35 -43.18964 -65.19535 1027 ft 131 kts 235°
2026-05-08 19:35 -43.19275 -65.20683 920 ft 129 kts 236°
2026-05-08 19:35 -43.19595 -65.21846 750 ft 133 kts 239°
2026-05-08 19:35 -43.19926 -65.23031 563 ft 134 kts 238°
2026-05-08 19:36 -43.20247 -65.24188 405 ft 125 kts 239°
2026-05-08 19:36 -43.20531 -65.25287 212 ft 117 kts 227°
2026-05-08 19:36 -43.20839 -65.26262 161 ft 105 kts 238°
2026-05-08 19:36 -43.21076 -65.27098 119 ft 75 kts 250°
2026-05-08 19:37 -43.21185 -65.27546 116 ft 28 kts 263°
2026-05-08 19:37 -43.21162 -65.27759 118 ft 16 kts 278°
2026-05-08 19:37 -43.21156 -65.27823 119 ft 0 kts 276°
2026-05-08 19:37 -43.21154 -65.27837 119 ft 4 kts 279°
2026-05-08 19:38 -43.21150 -65.27866 115 ft 5 kts 279°
2026-05-08 19:38 -43.21140 -65.27950 119 ft 12 kts 281°
2026-05-08 19:38 -43.21104 -65.28059 115 ft 13 kts 316°
2026-05-08 19:38 -43.21037 -65.28116 118 ft 10 kts 309°
2026-05-08 19:39 -43.21042 -65.28228 118 ft 9 kts 250°
2026-05-08 19:39 -43.21049 -65.28281 118 ft 5 kts 285°
2026-05-08 19:39 -43.21043 -65.28292 118 ft 3 kts 311°
2026-05-08 19:39 -43.21022 -65.28309 117 ft 0 kts 334°